Simultaneous Nadir Overpasses (SNOs) Predictions

Prediction of SNOs between FY3D and TERRA Satellite Orbit:

Table of predicted SNOs for the next 14.0 days since TLE Epoch: 7/27/2019
Index Date (FY3D) Time (FY3D) Lat,Lon (FY3D) SZA (FY3D ) Date (TERRA) Time (TERRA) Lat,Lon (TERRA) SZA (TERRA ) Distance(km) Time Diff (sec)
1 07/29/2019 17:21:25 -68.78, 98.83 130.01 07/29/2019 17:21:55 -68.78, 98.76 130.01 2.81 30
2 07/29/2019 18:12:09 68.69, -93.75 49.92 07/29/2019 18:11:22 68.66, -93.74 49.89 3.22 47
3 08/01/2019 09:37:52 -68.79,-145.30 129.34 08/01/2019 09:38:23 -68.82,-145.31 129.32 3.14 31
4 08/01/2019 10:28:36 68.71, 22.12 50.59 08/01/2019 10:27:50 68.70, 22.19 50.58 2.87 46
5 08/04/2019 01:54:18 -68.80, -29.44 128.64 08/04/2019 01:54:51 -68.80, -29.46 128.65 1.37 33
6 08/04/2019 02:45:01 68.67, 138.06 51.24 08/04/2019 02:44:18 68.68, 138.04 51.25 1.45 43
7 08/06/2019 18:10:45 -68.82, 86.43 127.90 08/06/2019 18:11:19 -68.82, 86.45 127.90 1.13 34
8 08/06/2019 19:01:28 68.68,-106.08 51.98 08/06/2019 19:00:46 68.70,-106.05 52.00 2.65 42
9 08/09/2019 10:27:11 -68.79,-157.64 127.18 08/09/2019 10:27:48 -68.79,-157.71 127.18 2.71 37
10 08/09/2019 11:17:55 68.70, 9.78 52.75 08/09/2019 11:17:15 68.67, 9.79 52.72 3.45 40




NCC Satellite Simultaneous Nadir Overpasses (SNOs) Prediction Service
